Home > Weather > Kingston > Past weeks

Flag for Canada Past Weather in Kingston, Ontario, Canada — Yesterday and Last 2 Weeks

Now
68 °F

Sprinkles. Cloudy.


Feels Like: 68 °F
Forecast: 57 / 77 °F
Wind: 9 mph from Southwest

Location: Kingston

Current Time: Jul 1, 2016 at 2:53:51 PM

Latest Report: Jul 1, 2016 at 2:00 PM


Visibility: 12 mi

Pressure: 29.83 "Hg

Humidity: 83%

Dew Point: 63 °F

Location of KingstonLocation

Past Weather in Kingston — Graph

°F

Kingston Temperature Yesterday

Maximum temperature yesterday: 79 °F (at 3:00 PM)
Minimum temperature yesterday: 55 °F (at 6:00 AM)
Average temperature yesterday: 69 °F

High & Low Weather Summary for the Past Weeks

 TemperatureHumidityPressure
High82 °F (Jun 16, 3:00 PM)100% (Jun 20, 11:00 PM)30.27 "Hg (Jun 20, 11:00 PM)
Low50 °F (Jun 23, 6:00 AM)24% (Jun 16, 6:00 PM)29.73 "Hg (Jun 20, 9:00 PM)
Average70 °F64%29.98 "Hg
* Reported Jun 16 1:00 PM — Jul 1 1:53 PM, Kingston, Weather by CustomWeather, © 2016

Note: Actual official high and low records may vary slightly from our data, if they occured in-between our weather recording intervals... More about our weather records

Advertising

Kingston Weather History for the Previous 24 Hours

Scroll right to see more
 ConditionsComfort  
Time TempWeatherWind HumidityBarometerVisibility
1:53 PM
Fri, Jul 1
70 °FSprinkles. Cloudy.10 mph73%29.81 "Hg12 mi
1:00 PM70 °FCloudy.8 mph78%29.84 "Hg15 mi
12:00 PM70 °FMostly cloudy.6 mph73%29.85 "Hg15 mi
11:00 AM72 °FBroken clouds.8 mph69%29.87 "Hg15 mi
10:00 AM70 °FBroken clouds.10 mph69%29.88 "Hg15 mi
9:00 AM68 °FBroken clouds.6 mph73%29.89 "Hg15 mi
8:00 AM68 °FPartly sunny.9 mph78%29.92 "Hg15 mi
7:00 AM66 °FPartly sunny.7 mph78%29.93 "Hg15 mi
6:00 AM55 °FPassing clouds.2 mph94%29.93 "Hg15 mi
11:00 PM
Thu, Jun 30
64 °FClear.5 mph78%29.98 "Hg15 mi
10:00 PM64 °FPassing clouds.5 mph78%29.99 "Hg15 mi
9:00 PM66 °FPassing clouds.8 mph68%29.98 "Hg15 mi
8:00 PM68 °FScattered clouds.9 mph64%29.97 "Hg15 mi
7:00 PM70 °FScattered clouds.10 mph64%29.98 "Hg15 mi
6:00 PM73 °FScattered clouds.10 mph50%29.98 "Hg15 mi
5:00 PM75 °FPassing clouds.14 mph50%29.98 "Hg15 mi
4:00 PM77 °FScattered clouds.14 mph51%29.98 "Hg15 mi
3:00 PM79 °FPassing clouds.13 mph39%29.99 "Hg15 mi
2:00 PM75 °FPassing clouds.16 mph54%30.00 "Hg15 mi
Weather by CustomWeather, © 2016

See weather overviewHow to use our weather pages